This is the latest recevied weather packets stored in our database for station/object K0VSC-1. If no packets are shown the sender has not sent any weather packets the latest 10 day(s).
| Time | Temp. | Humidity | Pressure | Rain* | Wind** | Luminosity | Snow |
|---|---|---|---|---|---|---|---|
| 1777947187 | 6.11° C | 49% | 1005.4 hPa | 0 mm | - | 0 W/m² | - |
| 1777946887 | 6.11° C | 50% | 1005.2 hPa | 0 mm | - | 0 W/m² | - |
| 1777946587 | 6.67° C | 50% | 1005.2 hPa | 0 mm | - | 0 W/m² | - |
| 1777946287 | 6.67° C | 51% | 1005.1 hPa | 0 mm | - | 0 W/m² | - |
| 1777945987 | 6.67° C | 52% | 1004.9 hPa | 0 mm | - | 0 W/m² | - |
| 1777945687 | 6.67° C | 53% | 1004.8 hPa | 0 mm | - | 0 W/m² | - |
| 1777945387 | 6.67° C | 52% | 1004.8 hPa | 0 mm | - | 0 W/m² | - |
| 1777945087 | 6.67° C | 52% | 1004.7 hPa | 0 mm | - | 0 W/m² | - |
| 1777944787 | 6.67° C | 50% | 1004.6 hPa | 0 mm | - | 0 W/m² | - |
| 1777944487 | 7.22° C | 50% | 1004.6 hPa | 0 mm | - | 0 W/m² | - |
| 1777944187 | 7.22° C | 49% | 1004.6 hPa | 0 mm | - | 5 W/m² | - |
| 1777943887 | 7.22° C | 49% | 1004.4 hPa | 0 mm | - | 7 W/m² | - |
| 1777943587 | 7.22° C | 49% | 1004.4 hPa | 0 mm | - | 9 W/m² | - |
| 1777943287 | 7.22° C | 50% | 1004.3 hPa | 0 mm | - | 16 W/m² | - |
| 1777942987 | 7.22° C | 48% | 1004.1 hPa | 0 mm | - | 18 W/m² | - |
| 1777942687 | 7.78° C | 48% | 1004.1 hPa | 0 mm | - | 18 W/m² | - |
| 1777942387 | 7.78° C | 48% | 1004 hPa | 0 mm | - | 19 W/m² | - |
| 1777942087 | 7.78° C | 47% | 1004 hPa | 0 mm | - | 26 W/m² | - |
| 1777941787 | 7.78° C | 46% | 1004 hPa | 0 mm | - | 26 W/m² | - |
| 1777941487 | 7.78° C | 46% | 1003.9 hPa | 0 mm | - | 33 W/m² | - |
| 1777941187 | 7.78° C | 46% | 1004 hPa | 0 mm | - | 44 W/m² | - |
| 1777940887 | 7.78° C | 46% | 1003.9 hPa | 0 mm | - | 42 W/m² | - |
| 1777940587 | 7.78° C | 45% | 1003.8 hPa | 0 mm | - | 49 W/m² | - |
| 1777940287 | 7.78° C | 45% | 1003.9 hPa | 0 mm | - | 62 W/m² | - |
| 1777939987 | 7.78° C | 45% | 1003.9 hPa | 0 mm | - | 69 W/m² | - |
* Rain latest hour (hover to see other rain measurements)
** Current wind speed in m/s (hover to see current wind gust speed)